Location: Banska Bystrica
(48.7333°N, 19.1500°E)
Time: 11:29:18
(UTC+01:00)

ISS - Pass Details

Date: 30 January 2021
Orbit: 417 x 422 km, 51.6° (Epoch: 07 March)

Event Time Altitude Azimuth Distance (km) Brightness Sun altitude
Rises 18:51:33 0° 290° (WNW) 2,376 1.3 -22.0°
Reaches altitude 10° 18:53:39 10° 291° (WNW) 1,510 0.0 -22.3°
Enters shadow 18:56:17 51° 292° (WNW) 538 -3.0 -22.8°
